[[{"header":{"parameterUnit":"m.s-1","parameterCategory":1,"la1":30.2991,"la2":30.254,"lo1":-89.0895,"lo2":-89.0444,"dy":0.0017,"dx":0.0017,"nx":28,"ny":28,"refTime":"2025-05-23T09:00:00:Z","depth":0,"parameterNumber":2,"parameterNumberName":"U-component_of_WINDS"},"data":[0,0,0,0,0,0,0,0,0,0,0,0,0,0,0,0,0,0,0,0,0,0,0,0,0,0,0,0,0,0,0,0,0,0,0,0,0,0,0,0,0,0,0,0,0,0,0,0,0,0,0,0,0,0,0,0,0,0,1.9919,1.992,0,1.9997,1.9998,1.9999,1.9995,1.9993,1.9992,1.9991,2.0069,2.0072,2.0075,0,0,0,0,0,0,0,0,0,0,0,0,0,1.9763,1.9766,1.9919,1.992,1.9921,1.9997,1.9998,1.9999,1.9995,1.9993,1.9992,1.9991,2.0068,2.0072,2.0076,0,0,0,0,0,0,0,0,0,0,0,0,0,1.9835,1.9767,1.9918,1.9928,1.9929,1.9996,1.9998,1.9999,1.9995,1.9993,1.9992,1.999,2.0067,2.0072,2.0076,2.0138,0,0,2.009,2.0092,0,0,0,0,0,0,0,0,1.9831,1.9841,1.9925,1.9927,1.9929,1.9984,1.9972,2.0046,1.9995,1.997,1.9991,1.9989,2.0042,2.0049,2.0067,2.0142,2.0145,2.0091,2.0094,2.0096,2.0097,0,0,0,0,0,0,0,1.9826,1.9837,1.9949,1.9927,1.9929,1.9927,1.9935,1.9986,2.0014,1.9972,1.9972,1.9981,2.0043,2.0063,2.0069,2.0147,2.0091,2.0095,2.0098,2.01,2.0275,2.0276,0,0,0,0,0,0,1.9819,1.9833,1.9947,1.9952,1.9875,1.9931,1.9941,1.9968,2.0014,2.0019,1.9983,1.9981,2.0055,2.0063,2.0072,2.0146,2.0096,2.01,2.0103,2.0273,2.0275,2.0277,0,0,0,0,0,0,1.9816,1.9829,1.9944,1.9892,1.9907,1.9936,1.9967,1.9971,1.999,2.0022,2.0027,1.9998,2.0054,2.0065,2.0122,2.0149,2.0102,2.0106,2.0271,2.0274,2.0276,2.0296,0,0,0,0,0,0,1.9811,1.9828,1.9853,1.9893,1.991,1.9993,1.9969,1.9973,1.9999,1.9997,2.0037,2.0042,2.0054,2.0115,2.0126,2.0154,2.011,2.0268,2.0272,2.0275,2.0293,2.0299,2.0304,0,0,0,0,0,1.9806,1.9855,1.9854,1.9868,1.9941,1.9995,2.0004,2.0017,2.0001,2.0025,2.0045,2.0041,2.0144,2.012,2.0133,2.0163,2.0267,2.0271,2.0275,2.029,2.0298,2.0304,0,0,0,0,0,0,1.9817,1.9861,1.986,1.9924,1.9956,1.9994,2.0025,2.0025,2.0061,2.0058,2.0072,2.0081,2.0137,2.0156,2.0129,2.0225,2.0203,2.021,2.021,2.0218,2.0223,2.0217,2.0114,0,0,0,0,0,1.9827,1.9868,1.9904,1.9957,1.9973,1.9996,2.002,2.0027,2.0061,2.0074,2.0098,2.013,2.0169,2.0195,2.0233,2.0296,2.0304,2.0323,2.0329,2.0333,2.0338,2.0371,2.038,2.0291,2.0291,2.0291,0,0,1.9848,1.9877,1.9902,1.9959,1.9985,2.0026,2.0008,2.0052,2.0082,2.008,2.0135,2.0154,2.019,2.025,2.0277,2.0267,2.0365,2.0339,2.0342,2.0345,2.0377,2.0385,2.0392,2.0294,2.0293,2.0293,0,0,1.9906,1.9933,1.9979,2.0005,2.0044,2.0059,2.007,2.0109,2.0122,2.0177,2.0176,2.0212,2.028,2.0305,2.0327,2.0394,2.0391,2.0406,2.0435,2.0467,2.0474,2.048,2.0503,2.0511,2.0412,2.0412,2.0412,0,1.9926,1.9989,2.0003,2.0047,2.0072,2.0073,2.0119,2.0143,2.0193,2.0209,2.0197,2.0282,2.0307,2.0371,2.0388,2.0406,2.0418,2.0401,2.0472,2.0479,2.0485,2.0506,2.0514,2.0413,2.0413,2.0413,2.0413,0,2.0011,2.0054,2.0087,2.0134,2.0163,2.0208,2.0228,2.0255,2.026,2.0276,2.0331,2.0361,2.0404,2.0421,2.0426,2.0486,2.0478,2.0469,2.0447,2.0494,2.0514,2.0523,2.0416,2.0415,2.0415,2.0414,0,0,2.0078,2.0132,2.0144,2.0165,2.0208,2.0241,2.0285,2.0328,2.035,2.0385,2.0421,2.0478,2.047,2.0495,2.0503,2.0531,2.058,2.0519,2.052,2.0528,2.0646,2.0651,2.0661,2.0579,2.0581,2.0582,2.0643,0,2.0139,2.0218,2.0232,2.0301,2.034,2.0342,2.038,2.041,2.0427,2.0461,2.0479,2.0519,2.0506,2.0521,2.0549,2.0568,2.0604,2.0565,2.0612,2.0613,2.0601,2.0672,2.0677,2.0733,2.0651,2.0652,2.0653,0,2.0221,2.0257,2.033,2.0366,2.0383,2.0418,2.0457,2.0491,2.0525,2.0534,2.0562,2.0566,2.0611,2.0589,2.065,2.0623,2.0643,2.0655,2.0658,2.0661,2.0635,2.0675,2.0751,2.0759,2.0666,2.0665,2.0664,0,2.0259,2.0326,2.0378,2.0396,2.0441,2.0465,2.0484,2.0516,2.0541,2.0576,2.0591,2.0631,2.0652,2.0682,2.0696,2.0679,2.0756,2.0735,2.0764,2.0764,2.0779,2.0777,2.0857,2.0795,2.0795,2.0795,2.0795,0,2.0325,2.0369,2.0396,2.0428,2.0477,2.0492,2.054,2.0558,2.0587,2.0621,2.0626,2.0658,2.0676,2.0711,2.0722,2.077,2.078,2.0788,2.0791,2.0787,2.0786,2.0799,2.0795,2.0797,2.0797,2.0796,2.0796,0,2.0376,2.0396,2.0452,2.049,2.05,2.0534,2.0566,2.0596,2.0613,2.0656,2.0667,2.0693,2.0734,2.0752,2.0802,2.081,2.0864,2.0864,2.0852,2.0853,2.088,2.0877,2.097,2.0982,2.0914,2.0914,2.0915,0,2.0415,2.0449,2.049,2.0514,2.0534,2.0573,2.0598,2.0614,2.0639,2.068,2.0705,2.0746,2.0779,2.0844,2.0867,2.0905,2.0905,2.0935,2.0911,2.0906,2.0903,2.09,2.0903,2.0939,2.094,2.094,2.0941,0,2.0483,2.0491,2.0527,2.0567,2.0597,2.0629,2.066,2.0679,2.0699,2.0728,2.077,2.0796,2.0847,2.0887,2.0927,2.0946,2.0946,2.0949,2.0957,2.0952,2.0943,2.0947,2.0863,2.0946,2.0945,2.0945,2.0945,2.0944,2.0528,2.0557,2.0591,2.0631,2.0656,2.0685,2.0715,2.0735,2.077,2.0813,2.0821,2.0865,2.0897,2.095,2.0971,2.1005,2.0997,2.101,2.1013,2.1015,2.1016,2.094,2.1012,2.1012,2.1012,2.1012,2.1012,0,2.0594,2.0615,2.0652,2.0695,2.0726,2.0725,2.076,2.0785,2.0824,2.0854,2.0887,2.0935,2.0974,2.0999,2.1038,2.106,2.1061,2.107,2.1067,2.1071,2.1021,2.1009,2.1068,2.1068,2.1068,2.1068,2.1068,2.1068,2.0632,2.0681,2.0693,2.0755,2.0776,2.082,2.0839,2.0865,2.0889,2.0942,2.0974,2.0991,2.1019,2.106,2.1095,2.1101,2.1115,2.1123,2.1129,2.1081,2.1075,2.1069,2.1058,2.1126,2.1126,2.1176,2.1176,2.1177]},{"header":{"parameterUnit":"m.s-1","parameterCategory":1,"la1":30.2991,"la2":30.254,"lo1":-89.0895,"lo2":-89.0444,"dy":0.0017,"dx":0.0017,"nx":28,"ny":28,"refTime":"2025-05-23T09:00:00:Z","depth":0,"parameterNumber":3,"parameterNumberName":"V-component_of_WINDS"},"data":[0,0,0,0,0,0,0,0,0,0,0,0,0,0,0,0,0,0,0,0,0,0,0,0,0,0,0,0,0,0,0,0,0,0,0,0,0,0,0,0,0,0,0,0,0,0,0,0,0,0,0,0,0,0,0,0,0,0,3.7639,3.7639,0,3.7673,3.7673,3.7674,3.7615,3.7613,3.7611,3.7609,3.764,3.7643,3.7646,0,0,0,0,0,0,0,0,0,0,0,0,0,3.7519,3.7522,3.7639,3.7639,3.764,3.7673,3.7673,3.7674,3.7615,3.7613,3.7611,3.7608,3.7639,3.7643,3.7646,0,0,0,0,0,0,0,0,0,0,0,0,0,3.7564,3.7523,3.7639,3.7615,3.7613,3.7673,3.7673,3.7674,3.7616,3.7613,3.761,3.7607,3.7638,3.7642,3.7646,3.773,0,0,3.7658,3.766,0,0,0,0,0,0,0,0,3.7562,3.7568,3.7618,3.7616,3.7615,3.7637,3.7642,3.7692,3.7617,3.7615,3.7609,3.7606,3.7641,3.7645,3.7658,3.7731,3.7733,3.7659,3.7661,3.7663,3.7664,0,0,0,0,0,0,0,3.7559,3.7567,3.7652,3.7619,3.7617,3.7601,3.7604,3.7652,3.7644,3.7615,3.761,3.7615,3.764,3.7654,3.7658,3.7733,3.7659,3.7662,3.7665,3.7666,3.7876,3.7879,0,0,0,0,0,0,3.7559,3.7564,3.7651,3.7653,3.758,3.7605,3.7609,3.7633,3.7643,3.7642,3.7618,3.7613,3.7648,3.7653,3.7659,3.7757,3.7663,3.7667,3.7669,3.7873,3.7877,3.7881,0,0,0,0,0,0,3.7557,3.7567,3.765,3.7608,3.7617,3.7611,3.7638,3.7635,3.7649,3.7646,3.7644,3.7634,3.7646,3.7653,3.7713,3.7757,3.7668,3.7672,3.787,3.7874,3.7879,3.7955,0,0,0,0,0,0,3.7553,3.7567,3.76,3.7609,3.762,3.7705,3.764,3.7638,3.7656,3.765,3.766,3.7659,3.7645,3.7707,3.7717,3.7761,3.7675,3.7865,3.7872,3.7877,3.7948,3.7962,3.7973,0,0,0,0,0,3.7549,3.7619,3.7602,3.7612,3.7661,3.7707,3.7713,3.7696,3.766,3.7692,3.769,3.7659,3.7751,3.7714,3.7724,3.777,3.7863,3.787,3.7877,3.7943,3.7959,3.7973,0,0,0,0,0,0,3.7613,3.762,3.76,3.7675,3.7692,3.7697,3.7737,3.7714,3.7739,3.7732,3.7708,3.7711,3.7775,3.7778,3.7737,3.7852,3.7801,3.781,3.7847,3.7862,3.7875,3.7872,3.7678,0,0,0,0,0,3.7637,3.7676,3.7678,3.7744,3.7753,3.7744,3.7764,3.7749,3.7764,3.777,3.7773,3.7787,3.7819,3.7841,3.787,3.7948,3.7949,3.7985,3.7998,3.8008,3.8016,3.8057,3.8073,3.7904,3.7904,3.7904,0,0,3.7684,3.7692,3.7718,3.7757,3.7768,3.7807,3.775,3.7794,3.7823,3.7776,3.7833,3.7836,3.785,3.792,3.795,3.7924,3.8063,3.8017,3.8025,3.8028,3.8066,3.8082,3.8096,3.7909,3.7908,3.7907,0,0,3.7791,3.7802,3.7858,3.787,3.7887,3.7881,3.7894,3.7904,3.7904,3.7961,3.7927,3.796,3.8016,3.8028,3.8041,3.8152,3.8124,3.8162,3.8227,3.8267,3.828,3.8292,3.8331,3.8346,3.8171,3.8171,3.8171,0,3.7848,3.7907,3.7889,3.7936,3.7953,3.7914,3.797,3.7982,3.8008,3.802,3.7991,3.8061,3.8068,3.8139,3.8166,3.8179,3.8192,3.8161,3.828,3.8292,3.8302,3.8339,3.8354,3.8176,3.8175,3.8175,3.8174,0,3.7976,3.8018,3.806,3.8088,3.811,3.8161,3.8149,3.8173,3.8157,3.8153,3.8211,3.8218,3.8248,3.8264,3.8247,3.8332,3.8316,3.8284,3.8232,3.8323,3.8358,3.8372,3.8182,3.8181,3.8179,3.8178,0,0,3.8124,3.8141,3.8157,3.8168,3.8185,3.8216,3.8264,3.8295,3.8316,3.8335,3.8374,3.8423,3.8393,3.8409,3.8393,3.8428,3.8516,3.8392,3.8392,3.8414,3.8609,3.8633,3.865,3.8497,3.85,3.8502,3.8608,0,3.823,3.8316,3.83,3.8383,3.8421,3.8384,3.8426,3.844,3.8438,3.8468,3.8465,3.85,3.8458,3.8467,3.8501,3.8498,3.8554,3.849,3.8533,3.8534,3.853,3.8668,3.8693,3.8793,3.8621,3.8623,3.8625,0,3.8366,3.8391,3.8478,3.8488,3.8503,3.8542,3.8568,3.8598,3.8613,3.8608,3.8626,3.8603,3.865,3.8598,3.8662,3.8619,3.8635,3.8637,3.864,3.8643,3.8585,3.8674,3.8824,3.8839,3.8646,3.8644,3.8643,0,3.8465,3.852,3.8579,3.859,3.8604,3.8632,3.8638,3.865,3.8669,3.8692,3.8704,3.8731,3.8746,3.8768,3.8753,3.8717,3.8819,3.8766,3.8816,3.8816,3.8839,3.8838,3.8993,3.885,3.885,3.885,3.8849,0,3.8585,3.8639,3.8624,3.866,3.872,3.8701,3.876,3.8762,3.8772,3.8807,3.8777,3.881,3.8789,3.882,3.8809,3.8863,3.887,3.8867,3.8863,3.887,3.887,3.888,3.8872,3.8854,3.8853,3.8852,3.8851,0,3.8705,3.8697,3.8759,3.8767,3.877,3.8814,3.882,3.8853,3.8848,3.8893,3.8902,3.8895,3.893,3.8918,3.8955,3.8947,3.9016,3.9003,3.9012,3.9009,3.9059,3.9055,3.9226,3.9248,3.9091,3.9093,3.9094,0,3.8782,3.8823,3.8836,3.8858,3.8867,3.8903,3.8923,3.8905,3.8927,3.8947,3.8977,3.901,3.9035,3.9092,3.909,3.9118,3.9105,3.9163,3.9109,3.9114,3.9106,3.9103,3.9107,3.9174,3.9176,3.9177,3.9179,0,3.892,3.8914,3.8944,3.8974,3.8999,3.902,3.9039,3.9059,3.9042,3.9068,3.9104,3.9124,3.9162,3.9195,3.922,3.9225,3.9199,3.9196,3.9209,3.9216,3.9219,3.9217,3.9041,3.9192,3.9191,3.919,3.9189,3.9188,3.902,3.9055,3.907,3.9105,3.9117,3.9136,3.9167,3.9167,3.9198,3.9228,3.9216,3.9257,3.927,3.9301,3.931,3.9341,3.9319,3.9338,3.9342,3.9347,3.9354,3.9214,3.9346,3.9345,3.9345,3.9345,3.9344,0,3.9156,3.9163,3.9196,3.9224,3.9251,3.9226,3.9245,3.9269,3.9307,3.9321,3.9347,3.9388,3.942,3.9419,3.9448,3.9473,3.9462,3.9481,3.9479,3.9481,3.9372,3.9358,3.949,3.949,3.949,3.949,3.949,3.949,3.9229,3.9287,3.9283,3.9346,3.9352,3.9394,3.9408,3.9424,3.9435,3.9483,3.951,3.951,3.9518,3.9547,3.9575,3.9573,3.9585,3.9609,3.9604,3.9503,3.9488,3.9474,3.9461,3.9612,3.9612,3.9709,3.971,3.9711]}]]